Regional Weather Roundup
Issued by NWS

Home | Current Version | Previous Version | Text Only | Print | Product List | Glossary Off
Versions: 1 2 3 4 5 6 7 8 9 10 11 12 13 14 15 16 17 18 19 20 21 22 23 24 25 26 27 28 29 30 31 32 33 34 35 36 37 38 39 40 41 42 43 44 45 46 47 48 49 50

000
ASUS43 KFSD 220510
RWRSD

WEATHER ROUNDUP FOR SOUTH DAKOTA
NATIONAL WEATHER SERVICE SIOUX FALLS SD
1200 AM CDT TUE JUL 22 2014

NOTE: "FAIR" INDICATES FEW OR NO CLOUDS BELOW 12,000 FEET WITH NO
SIGNIFICANT WEATHER AND/OR OBSTRUCTIONS TO VISIBILITY.


SDZ001>005-009-010-012>017-220600-
NORTHWEST AND NORTH CENTRAL SOUTH DAKOTA

CITY           SKY/WX    TMP DP  RH WIND       PRES   REMARKS
BUFFALO          N/A     65  62  90 NE8       30.01R
FAITH            N/A     67  63  87 N12       30.00R
MOBRIDGE       CLEAR     66  63  90 CALM      29.93R
$$

SDZ012>016-024>037-041>051-057-063-072>074-220600-
SOUTHWEST AND SOUTH CENTRAL SOUTH DAKOTA

CITY           SKY/WX    TMP DP  RH WIND       PRES   REMARKS
RAPID CTY ARPT PTCLDY    73  63  70 NW18      30.11R
PIERRE         PTCLDY    75  65  70 N13       29.90R
CUSTER         MOCLDY    72  49  44 N12G21    30.20R
ELLSWORTH AFB  MOCLDY    73  63  68 N10G29    30.10R THUNDER
PHILIP         CLEAR     77  64  64 N14       29.95R
PINE RIDGE     PTCLDY    81  56  42 NE13      29.99R
WINNER         FAIR      82  57  42 N8        29.90R
$$

SDZ004>011-016>023-039-040-220600-
NORTHEAST SOUTH DAKOTA

CITY           SKY/WX    TMP DP  RH WIND       PRES   REMARKS
ABERDEEN       CLEAR     66  63  90 NW10      29.89R
WATERTOWN      PTCLDY    76  74  93 N7        29.84R
SISSETON         N/A     71  65  81 N10       29.80R
$$

SDZ017-020-022-023-036>040-048>070-220600-
SOUTHEAST SOUTH DAKOTA

CITY           SKY/WX    TMP DP  RH WIND       PRES   REMARKS
SIOUX FALLS    CLEAR     82  77  84 CALM      29.83R
HURON          CLEAR     74  63  68 N12       29.85R
CHAMBERLAIN    PTCLDY    81  66  61 N10       29.87R
MITCHELL       CLEAR     81  74  79 N8        29.83R
YANKTON        CLEAR     75  73  94 CALM      29.82R
$$

ABBREVIATIONS USED IN REMARKS
   TC - TEMPERATURE IN CELSIUS
  WCI - WIND CHILL INDEX
   HX - HEAT INDEX
  VSB - VISIBILITY




USA.gov is the U.S. government's official web portal to all federal, state and local government web resources and services.